| time (UTC) | temp C | wind direction | speed KPH | gust KPH | rain 1hr cm | rain 24hr cm | rain mn cm | humidity % | barometer mb |
| 20260510153003 | 11 | 46 | 8.0 | 27.4 | 0.00 | 0.00 | 0.00 | 59 | 1013.2 |
| 20260510152226 | 12 | 48 | 6.4 | 17.7 | 0.00 | 0.00 | 0.00 | 58 | 1013.3 |
| 20260510151504 | 11 | 34 | 6.4 | 17.7 | 0.00 | 0.00 | 0.00 | 59 | 1013.4 |
| 20260510150004 | 11 | 19 | 6.4 | 17.7 | 0.00 | 0.00 | 0.00 | 61 | 1013.7 |
| 20260510145226 | 11 | 52 | 6.4 | 20.9 | 0.00 | 0.00 | 0.00 | 60 | 1013.5 |
| 20260510144504 | 11 | 67 | 4.8 | 27.4 | 0.00 | 0.00 | 0.00 | 60 | 1013.7 |
| 20260510143004 | 11 | 58 | 9.7 | 25.7 | 0.00 | 0.00 | 0.00 | 62 | 1013.9 |
| 20260510142226 | 11 | 61 | 8.0 | 25.7 | 0.00 | 0.00 | 0.00 | 61 | 1013.8 |
| 20260510141504 | 11 | 59 | 12.9 | 25.7 | 0.00 | 0.00 | 0.00 | 62 | 1014.1 |
| 20260510140003 | 11 | 36 | 8.0 | 24.1 | 0.00 | 0.00 | 0.00 | 65 | 1014.2 |
| 20260510135226 | 11 | 44 | 12.9 | 24.1 | 0.00 | 0.00 | 0.00 | 65 | 1014.1 |
| 20260510134505 | 11 | 36 | 8.0 | 22.5 | 0.00 | 0.00 | 0.00 | 65 | 1014.4 |
| 20260510133003 | 11 | 68 | 9.7 | 22.5 | 0.00 | 0.00 | 0.00 | 66 | 1014.5 |
| 20260510132226 | 11 | 46 | 6.4 | 22.5 | 0.00 | 0.00 | 0.00 | 65 | 1014.4 |
| 20260510131503 | 11 | 37 | 6.4 | 17.7 | 0.00 | 0.00 | 0.00 | 64 | 1014.5 |
| 20260510130003 | 11 | 43 | 12.9 | 24.1 | 0.00 | 0.00 | 0.00 | 65 | 1014.9 |
| 20260510125226 | 11 | 32 | 12.9 | 24.1 | 0.00 | 0.00 | 0.00 | 66 | 1014.5 |
| 20260510124506 | 11 | 49 | 3.2 | 25.7 | 0.00 | 0.00 | 0.00 | 67 | 1014.8 |
| 20260510123003 | 11 | 38 | 12.9 | 24.1 | 0.00 | 0.00 | 0.00 | 68 | 1014.9 |
| 20260510122226 | 11 | 52 | 6.4 | 22.5 | 0.00 | 0.00 | 0.00 | 68 | 1014.9 |
| 20260510121504 | 11 | 68 | 8.0 | 27.4 | 0.00 | 0.00 | 0.00 | 69 | 1015.0 |
| 20260510120003 | 10 | 41 | 9.7 | 29.0 | 0.00 | 0.00 | 0.00 | 70 | 1015.0 |
| 20260510115226 | 10 | 53 | 6.4 | 20.9 | 0.00 | 0.00 | 0.00 | 70 | 1015.3 |
| 20260510114505 | 10 | 46 | 11.3 | 22.5 | 0.00 | 0.00 | 0.00 | 69 | 1015.0 |
| 20260510113003 | 11 | 63 | 12.9 | 20.9 | 0.00 | 0.00 | 0.00 | 68 | 1015.3 |
| 20260510112226 | 11 | 45 | 6.4 | 20.9 | 0.00 | 0.00 | 0.00 | 70 | 1015.4 |
| 20260510111504 | 11 | 52 | 12.9 | 27.4 | 0.00 | 0.00 | 0.00 | 69 | 1015.6 |
| 20260510110003 | 11 | 34 | 3.2 | 24.1 | 0.00 | 0.00 | 0.00 | 68 | 1015.6 |
| 20260510105226 | 11 | 43 | 8.0 | 24.1 | 0.00 | 0.00 | 0.00 | 68 | 1015.3 |
| 20260510104503 | 11 | 33 | 17.7 | 29.0 | 0.00 | 0.00 | 0.00 | 68 | 1015.7 |
| 20260510103216 | 11 | 48 | 6.4 | 20.9 | 0.00 | 0.00 | 0.00 | 68 | 1015.4 |
| 20260510102226 | 11 | 42 | 6.4 | 24.1 | 0.00 | 0.00 | 0.00 | 70 | 1015.5 |
| 20260510101503 | 10 | 46 | 6.4 | 27.4 | 0.00 | 0.00 | 0.00 | 71 | 1015.5 |
| 20260510100003 | 11 | 42 | 11.3 | 22.5 | 0.00 | 0.00 | 0.00 | 69 | 1015.4 |
| 20260510095226 | 11 | 30 | 11.3 | 24.1 | 0.00 | 0.00 | 0.00 | 70 | 1015.5 |
| 20260510094503 | 11 | 38 | 9.7 | 22.5 | 0.00 | 0.00 | 0.00 | 70 | 1015.6 |
| 20260510093003 | 11 | 17 | 6.4 | 24.1 | 0.00 | 0.00 | 0.00 | 71 | 1015.5 |
| 20260510092226 | 11 | 44 | 6.4 | 24.1 | 0.00 | 0.00 | 0.00 | 72 | 1015.4 |
| 20260510091505 | 11 | 29 | 6.4 | 22.5 | 0.00 | 0.00 | 0.00 | 72 | 1015.6 |
| 20260510090004 | 11 | 46 | 4.8 | 24.1 | 0.00 | 0.00 | 0.00 | 74 | 1015.7 |
| 20260510085226 | 11 | 50 | 9.7 | 27.4 | 0.00 | 0.00 | 0.00 | 73 | 1015.7 |
| 20260510084505 | 11 | 37 | 11.3 | 22.5 | 0.00 | 0.00 | 0.00 | 73 | 1015.7 |
| 20260510083003 | 11 | 55 | 6.4 | 27.4 | 0.00 | 0.00 | 0.00 | 72 | 1015.8 |
| 20260510082226 | 11 | 56 | 8.0 | 25.7 | 0.00 | 0.00 | 0.00 | 72 | 1016.0 |
| 20260510081504 | 11 | 51 | 9.7 | 25.7 | 0.00 | 0.00 | 0.00 | 72 | 1015.7 |
| 20260510080003 | 10 | 49 | 9.7 | 27.4 | 0.00 | 0.00 | 0.00 | 73 | 1015.7 |
| 20260510075226 | 10 | 58 | 12.9 | 27.4 | 0.00 | 0.00 | 0.00 | 74 | 1016.2 |
| 20260510074505 | 10 | 69 | 6.4 | 27.4 | 0.00 | 0.00 | 0.00 | 76 | 1015.8 |
| 20260510073003 | 10 | 34 | 6.4 | 22.5 | 0.00 | 0.00 | 0.00 | 77 | 1016.0 |
| 20260510072226 | 10 | 48 | 11.3 | 22.5 | 0.00 | 0.00 | 0.00 | 78 | 1015.9 |
| 20260510071503 | 10 | 39 | 6.4 | 22.5 | 0.00 | 0.00 | 0.00 | 79 | 1015.9 |
| 20260510070221 | 10 | 31 | 4.8 | 24.1 | 0.00 | 0.00 | 0.00 | 81 | 1015.9 |
| 20260510065226 | 9 | 42 | 9.7 | 22.5 | 0.00 | 0.00 | 0.00 | 82 | 1015.8 |
| 20260510064503 | 9 | 45 | 6.4 | 22.5 | 0.00 | 0.00 | 0.00 | 82 | 1015.8 |
| 20260510063217 | 9 | 26 | 6.4 | 20.9 | 0.00 | 0.00 | 0.00 | 83 | 1015.9 |
| 20260510062226 | 8 | 52 | 8.0 | 17.7 | 0.00 | 0.00 | 0.00 | 83 | 1015.8 |
| 20260510061505 | 8 | 40 | 9.7 | 20.9 | 0.00 | 0.00 | 0.00 | 84 | 1015.9 |
| 20260510060003 | 8 | 36 | 4.8 | 17.7 | 0.00 | 0.00 | 0.00 | 85 | 1015.6 |
| 20260510055226 | 8 | 40 | 6.4 | 14.5 | 0.00 | 0.00 | 0.00 | 86 | 1015.4 |
| 20260510054503 | 8 | 27 | 3.2 | 12.9 | 0.00 | 0.00 | 0.00 | 86 | 1015.3 |
| 20260510053003 | 8 | 48 | 3.2 | 12.9 | 0.00 | 0.00 | 0.00 | 86 | 1015.6 |
| 20260510052226 | 8 | 36 | 3.2 | 11.3 | 0.00 | 0.00 | 0.00 | 86 | 1015.3 |
| 20260510051503 | 8 | 31 | 3.2 | 11.3 | 0.00 | 0.00 | 0.00 | 87 | 1015.5 |
| 20260510050003 | 8 | 41 | 6.4 | 14.5 | 0.00 | 0.00 | 0.00 | 87 | 1015.7 |
| 20260510045226 | 8 | 19 | 6.4 | 12.9 | 0.00 | 0.00 | 0.00 | 87 | 1015.5 |
| 20260510044717 | 8 | 28 | 3.2 | 9.7 | 0.00 | 0.00 | 0.00 | 87 | 1015.5 |
| 20260510043005 | 7 | 18 | 4.8 | 11.3 | 0.00 | 0.00 | 0.00 | 88 | 1015.7 |
| 20260510042226 | 7 | 31 | 1.6 | 11.3 | 0.00 | 0.00 | 0.00 | 88 | 1015.5 |
| 20260510041503 | 7 | 16 | 4.8 | 9.7 | 0.00 | 0.00 | 0.00 | 88 | 1015.6 |
| 20260510035226 | 8 | 21 | 4.8 | 11.3 | 0.00 | 0.00 | 0.00 | 88 | 1015.9 |
| 20260510034719 | 8 | 22 | 6.4 | 9.7 | 0.00 | 0.00 | 0.00 | 87 | 1016.0 |
| 20260510033005 | 8 | 41 | 3.2 | 17.7 | 0.00 | 0.00 | 0.00 | 87 | 1015.9 |
| 20260510032226 | 8 | 15 | 3.2 | 17.7 | 0.00 | 0.00 | 0.00 | 87 | 1016.1 |
| 20260510031504 | 8 | 11 | 3.2 | 12.9 | 0.00 | 0.00 | 0.00 | 88 | 1016.0 |
| 20260510030218 | 8 | 6 | 3.2 | 12.9 | 0.00 | 0.00 | 0.00 | 88 | 1016.1 |
| 20260510025226 | 8 | 24 | 3.2 | 14.5 | 0.00 | 0.00 | 0.00 | 88 | 1015.7 |
| 20260510024504 | 8 | 20 | 6.4 | 14.5 | 0.00 | 0.00 | 0.00 | 88 | 1015.9 |
| 20260510023004 | 8 | 359 | 3.2 | 12.9 | 0.00 | 0.00 | 0.00 | 89 | 1016.0 |
| 20260510022226 | 8 | 28 | 3.2 | 12.9 | 0.00 | 0.00 | 0.00 | 89 | 1016.0 |
| 20260510021503 | 8 | 29 | 6.4 | 14.5 | 0.00 | 0.00 | 0.00 | 89 | 1016.1 |
| 20260510020005 | 8 | 19 | 3.2 | 11.3 | 0.00 | 0.00 | 0.00 | 89 | 1016.0 |
| 20260510015226 | 8 | 27 | 3.2 | 11.3 | 0.00 | 0.00 | 0.00 | 89 | 1016.3 |
| 20260510013003 | 7 | 8 | 1.6 | 6.4 | 0.00 | 0.00 | 0.00 | 88 | 1016.2 |
| 20260510012226 | 7 | 359 | 1.6 | 12.9 | 0.00 | 0.00 | 0.00 | 88 | 1016.0 |
| 20260510011503 | 7 | 356 | 1.6 | 12.9 | 0.00 | 0.00 | 0.00 | 87 | 1016.1 |
| 20260510010005 | 7 | 17 | 3.2 | 11.3 | 0.00 | 0.00 | 0.00 | 86 | 1015.9 |
| 20260510005226 | 8 | 2 | 3.2 | 11.3 | 0.00 | 0.00 | 0.00 | 86 | 1016.1 |
| 20260510004504 | 8 | 17 | 3.2 | 9.7 | 0.00 | 0.00 | 0.00 | 86 | 1016.1 |
| 20260510003004 | 8 | 21 | 3.2 | 6.4 | 0.00 | 0.00 | 0.00 | 84 | 1016.6 |
| 20260510002226 | 8 | 26 | 0.0 | 6.4 | 0.00 | 0.00 | 0.00 | 83 | 1016.4 |
| 20260510001504 | 8 | 25 | 3.2 | 6.4 | 0.00 | 0.00 | 0.00 | 83 | 1016.4 |
| 20260510000005 | 8 | 10 | 0.0 | 6.4 | 0.00 | 0.00 | 0.00 | 80 | 1016.6 |
| 20260509235226 | 8 | 18 | 1.6 | 6.4 | 0.00 | 0.00 | 0.00 | 79 | 1016.4 |
| 20260509234503 | 8 | 31 | 0.0 | 3.2 | 0.00 | 0.00 | 0.00 | 78 | 1016.6 |
| 20260509233004 | 8 | 20 | 3.2 | 6.4 | 0.00 | 0.00 | 0.00 | 77 | 1016.3 |
| 20260509232226 | 9 | 42 | 1.6 | 9.7 | 0.00 | 0.00 | 0.00 | 76 | 1016.5 |
| 20260509231717 | 9 | 48 | 1.6 | 9.7 | 0.00 | 0.00 | 0.00 | 75 | 1016.3 |
| 20260509230005 | 9 | 41 | 3.2 | 9.7 | 0.00 | 0.00 | 0.00 | 72 | 1016.4 |
| 20260509225226 | 9 | 38 | 3.2 | 9.7 | 0.00 | 0.00 | 0.00 | 71 | 1016.3 |
| 20260509224503 | 10 | 32 | 3.2 | 9.7 | 0.00 | 0.00 | 0.00 | 69 | 1016.4 |
| 20260509223003 | 10 | 37 | 3.2 | 6.4 | 0.00 | 0.00 | 0.00 | 68 | 1016.4 |
| 20260509222226 | 10 | 48 | 3.2 | 11.3 | 0.00 | 0.00 | 0.00 | 67 | 1016.5 |
| 20260509221503 | 10 | 38 | 6.4 | 11.3 | 0.00 | 0.00 | 0.00 | 65 | 1016.1 |
| 20260509220003 | 10 | 49 | 1.6 | 6.4 | 0.00 | 0.00 | 0.00 | 63 | 1016.2 |
| 20260509215226 | 10 | 59 | 3.2 | 6.4 | 0.00 | 0.00 | 0.00 | 63 | 1016.3 |
| 20260509214717 | 10 | 54 | 3.2 | 6.4 | 0.00 | 0.00 | 0.00 | 63 | 1016.1 |
| 20260509213006 | 11 | 47 | 3.2 | 6.4 | 0.00 | 0.00 | 0.00 | 62 | 1015.9 |
| 20260509212226 | 11 | 41 | 0.0 | 6.4 | 0.00 | 0.00 | 0.00 | 64 | 1015.6 |
| 20260509211504 | 11 | 48 | 3.2 | 6.4 | 0.00 | 0.00 | 0.00 | 63 | 1015.9 |
| 20260509210219 | 11 | 58 | 3.2 | 6.4 | 0.00 | 0.00 | 0.00 | 62 | 1015.8 |
| 20260509205226 | 12 | 56 | 1.6 | 6.4 | 0.00 | 0.00 | 0.00 | 60 | 1015.8 |
| 20260509204503 | 12 | 55 | 3.2 | 6.4 | 0.00 | 0.00 | 0.00 | 59 | 1015.9 |
| 20260509203217 | 12 | 62 | 1.6 | 6.4 | 0.00 | 0.00 | 0.00 | 57 | 1015.9 |
| 20260509202226 | 12 | 67 | 1.6 | 6.4 | 0.00 | 0.00 | 0.00 | 57 | 1015.6 |
| 20260509201718 | 11 | 87 | 1.6 | 6.4 | 0.00 | 0.00 | 0.00 | 58 | 1015.8 |
| 20260509200004 | 11 | 0 | 0.0 | 0.0 | 0.00 | 0.00 | 0.00 | 59 | 1015.7 |
| 20260509195226 | 12 | 90 | 0.0 | 3.2 | 0.00 | 0.00 | 0.00 | 58 | 1015.4 |
| 20260509194503 | 12 | 93 | 0.0 | 3.2 | 0.00 | 0.00 | 0.00 | 56 | 1015.3 |
| 20260509193217 | 12 | 76 | 1.6 | 3.2 | 0.00 | 0.00 | 0.00 | 55 | 1015.4 |
| 20260509192226 | 13 | 73 | 1.6 | 3.2 | 0.00 | 0.00 | 0.00 | 53 | 1015.4 |
| 20260509191503 | 13 | 76 | 1.6 | 6.4 | 0.00 | 0.00 | 0.00 | 52 | 1015.7 |
| 20260509190003 | 13 | 64 | 1.6 | 6.4 | 0.00 | 0.00 | 0.00 | 50 | 1015.3 |
| 20260509185226 | 14 | 66 | 3.2 | 6.4 | 0.00 | 0.00 | 0.00 | 48 | 1015.2 |
| 20260509184719 | 14 | 62 | 3.2 | 6.4 | 0.00 | 0.00 | 0.00 | 47 | 1015.2 |
| 20260509183003 | 14 | 71 | 3.2 | 9.7 | 0.00 | 0.00 | 0.00 | 46 | 1015.0 |
| 20260509182226 | 15 | 69 | 3.2 | 9.7 | 0.00 | 0.00 | 0.00 | 45 | 1015.1 |
| 20260509181503 | 15 | 79 | 4.8 | 12.9 | 0.00 | 0.00 | 0.00 | 45 | 1015.2 |
| 20260509180003 | 15 | 67 | 6.4 | 12.9 | 0.00 | 0.00 | 0.00 | 43 | 1015.2 |
| 20260509175226 | 16 | 58 | 4.8 | 12.9 | 0.00 | 0.00 | 0.00 | 42 | 1015.0 |
| 20260509174503 | 16 | 63 | 6.4 | 14.5 | 0.00 | 0.00 | 0.00 | 41 | 1014.9 |
| 20260509173004 | 16 | 87 | 6.4 | 17.7 | 0.00 | 0.00 | 0.00 | 40 | 1014.9 |
| 20260509172226 | 16 | 70 | 6.4 | 17.7 | 0.00 | 0.00 | 0.00 | 40 | 1014.8 |
| 20260509171503 | 16 | 66 | 6.4 | 17.7 | 0.00 | 0.00 | 0.00 | 40 | 1015.1 |
| 20260509170004 | 16 | 77 | 4.8 | 14.5 | 0.00 | 0.00 | 0.00 | 41 | 1015.0 |
| 20260509165226 | 17 | 54 | 3.2 | 14.5 | 0.00 | 0.00 | 0.00 | 40 | 1015.2 |
| 20260509164504 | 16 | 53 | 4.8 | 17.7 | 0.00 | 0.00 | 0.00 | 41 | 1015.1 |
| 20260509163003 | 17 | 61 | 4.8 | 14.5 | 0.00 | 0.00 | 0.00 | 42 | 1015.3 |
| 20260509162226 | 17 | 67 | 3.2 | 11.3 | 0.00 | 0.00 | 0.00 | 41 | 1015.2 |
| 20260509161503 | 17 | 48 | 3.2 | 12.9 | 0.00 | 0.00 | 0.00 | 41 | 1015.2 |
| 20260509160005 | 17 | 40 | 3.2 | 24.1 | 0.00 | 0.00 | 0.00 | 42 | 1015.1 |
| 20260509155226 | 17 | 52 | 3.2 | 17.7 | 0.00 | 0.00 | 0.00 | 42 | 1015.4 |
| 20260509154503 | 17 | 68 | 6.4 | 17.7 | 0.00 | 0.00 | 0.00 | 43 | 1015.4 |